Tracking 19832 objects as of 25-Aug-2019
HD Live streaming from Space Station
objects crossing your sky now

COSMOS 617

Track COSMOS 617 now!
10-day predictions
COSMOS 617 is classified as:


NORAD ID: 6985
Int'l Code: 1973-104A
Perigee: 1,340.4 km
Apogee: 1,491.1 km
Inclination: 74.0 °
Period: 114.0 minutes
Semi major axis: 7786 km
RCS: 0.6851 m2 (medium)
Launch date: December 19, 1973
Source: Commonwealth of Independent States (former USSR) (CIS)
Launch site: PLESETSK MISSILE AND SPACE COMPLEX (PKMTR)
aabbcc
Your satellite tracking list
Your tracking list is empty




NASA's NSSDC Master Catalog

Two Line Element Set (TLE):
1  6985U 73104A   19236.32301556 -.00000008  00000-0  50980-4 0  9994
2  6985  74.0291 190.6657 0096710 308.3683 210.9257 12.63481923107059
Source of the keplerian elements: AFSPC